Flag for U.S.A. Weather past 2 weeks in St. George, Utah, U.S.A.

Now
90 °F

Clear.


Feels Like: 86 °F
Forecast: 76 / 100 °F
Wind: 9 mph from Southeast

Location: Saint George

Current Time: Jul 26, 2014 at 12:05:01 AM

Latest Report: Jul 25, 2014 at 11:35 PM


Visibility: 10 mi

Pressure: 29.97 "Hg

Humidity: 24%

Dew point: 48 °F

Location of St. GeorgeLocation

Historic Weather in St. George — Graph

°F

St. George temperature yesterday

Maximum temperature yesterday: 102 °F (at 1:35 PM)
Minimum temperature yesterday: 82 °F (at 4:55 AM)
Average temperature yesterday: 92 °F

Past Weeks' High & Low Weather Summary

 TemperatureHumidityPressure
High109 °F (Jul 13, 6:35 PM)51% (Jul 14, 7:15 AM)30.17 "Hg (Jul 14, 7:15 AM)
Low70 °F (Jul 22, 7:15 AM)9% (Jul 23, 2:55 PM)29.82 "Hg (Jul 17, 6:35 PM)
Average90 °F22%29.98 "Hg
* Reported Jul 11 4:35 PM — Jul 25 10:55 PM, St. George, Weather by CustomWeather, © 2014

Note: Actual official high and low records may vary slightly from our data, if they occured in-between our weather recording intervals... More about our weather records

Advertising

St. George weather history for previous 24 hours

 ConditionsComfort  
Time TempWeatherWind HumidityBarometerVisibility
10:55 PM
Jul 25
88 °FClear.8 mph25%29.97 "Hg10 mi
10:35 PM90 °FClear.5 mph24%29.97 "Hg10 mi
10:15 PM90 °FClear.6 mph24%29.97 "Hg10 mi
9:55 PM90 °FClear.6 mph26%29.96 "Hg10 mi
9:35 PM91 °FSunny.6 mph26%29.96 "Hg10 mi
8:55 PM91 °FSunny.7 mph26%29.94 "Hg10 mi
8:35 PM93 °FSunny.7 mph24%29.93 "Hg10 mi
8:15 PM95 °FSunny.10 mph20%29.93 "Hg10 mi
7:55 PM97 °FSunny.3 mph19%29.93 "Hg10 mi
7:35 PM97 °FSunny.No wind19%29.93 "Hg10 mi
7:15 PM97 °FSunny.3 mph19%29.93 "Hg10 mi
6:55 PM93 °FSunny.5 mph21%29.93 "Hg7 mi
6:35 PM93 °FSunny.3 mph21%29.94 "Hg10 mi
5:55 PM97 °FSunny.18 mph20%29.95 "Hg10 mi
5:35 PM97 °FSunny.20 mph19%29.94 "Hg10 mi
5:15 PM99 °FSunny.24 mph18%29.94 "Hg10 mi
4:55 PM99 °FSunny.21 mph21%29.94 "Hg10 mi
4:35 PM99 °FSunny.16 mph21%29.95 "Hg10 mi
4:15 PM99 °FSunny.18 mph22%29.95 "Hg10 mi
3:55 PM99 °FThundershowers. Sunny.16 mph22%29.95 "Hg10 mi
3:35 PM97 °FThunderstorms. Sunny.16 mph23%29.96 "Hg10 mi
3:15 PM97 °FThundershowers. Scattered clouds.23 mph22%29.96 "Hg10 mi
2:55 PM99 °FThundershowers. Passing clouds.15 mph19%29.95 "Hg10 mi
2:35 PM100 °FPassing clouds.15 mph18%29.95 "Hg10 mi
2:15 PM102 °FPassing clouds.14 mph17%29.95 "Hg10 mi
1:55 PM102 °FSunny.10 mph18%29.95 "Hg10 mi
1:35 PM102 °FSunny.13 mph17%29.96 "Hg10 mi
1:15 PM100 °FSunny.9 mph18%29.97 "Hg10 mi
12:55 PM99 °FSunny.7 mph19%29.97 "Hg10 mi
12:35 PM99 °FSunny.8 mph19%29.97 "Hg10 mi
12:15 PM99 °FSunny.No wind19%29.98 "Hg10 mi
11:55 AM97 °FSunny.No wind19%29.99 "Hg10 mi
11:35 AM97 °FSunny.3 mph19%29.99 "Hg10 mi
11:15 AM99 °FSunny.5 mph19%29.99 "Hg10 mi
10:55 AM95 °FSunny.No wind23%30.00 "Hg10 mi
10:35 AM91 °FSunny.No wind24%30.00 "Hg10 mi
10:15 AM91 °FSunny.No wind24%30.00 "Hg10 mi
9:55 AM91 °FSunny.3 mph24%30.00 "Hg10 mi
9:35 AM90 °FSunny.3 mph26%30.00 "Hg10 mi
8:55 AM90 °FSunny.No wind26%30.00 "Hg10 mi
8:35 AM90 °FSunny.8 mph27%30.00 "Hg10 mi
8:15 AM88 °FSunny.9 mph29%29.99 "Hg10 mi
7:55 AM86 °FSunny.5 mph31%29.98 "Hg10 mi
7:35 AM84 °FSunny.7 mph31%29.98 "Hg10 mi
6:35 AM82 °FClear.7 mph32%29.97 "Hg10 mi
6:15 AM82 °FClear.7 mph32%29.97 "Hg10 mi
5:55 AM82 °FClear.9 mph30%29.95 "Hg10 mi
5:35 AM82 °FClear.6 mph30%29.95 "Hg10 mi
5:15 AM82 °FClear.6 mph30%29.95 "Hg10 mi
4:55 AM82 °FClear.5 mph30%29.95 "Hg10 mi
4:35 AM84 °FClear.8 mph29%29.94 "Hg10 mi
4:15 AM88 °FClear.6 mph25%29.94 "Hg10 mi
3:55 AM84 °FClear.No wind29%29.94 "Hg10 mi
3:35 AM86 °FClear.9 mph29%29.93 "Hg10 mi
2:55 AM86 °FClear.8 mph29%29.94 "Hg10 mi
2:35 AM88 °FClear.10 mph27%29.94 "Hg10 mi
2:15 AM88 °FClear.7 mph27%29.94 "Hg10 mi
1:55 AM90 °FClear.16 mph26%29.94 "Hg10 mi
1:35 AM90 °FClear.8 mph26%29.94 "Hg10 mi
1:15 AM90 °FClear.8 mph26%29.94 "Hg10 mi
12:55 AM91 °FClear.12 mph24%29.93 "Hg10 mi
12:35 AM93 °FClear.12 mph23%29.93 "Hg10 mi
12:15 AM91 °FClear.9 mph26%29.92 "Hg10 mi
Weather by CustomWeather, © 2014

See weather overviewHow to use our weather pages